sat.trackr.live / text

‹ back to catalog

GSAT0225 (GALILEO 29)

NORAD 59598 · 2024-079A

PAYLOAD ACTIVE UNKNOWN

§ Identity

Operator
Country
ESA
Launch date
2024-04-28
Launch site
AFETR
Launch vehicle
Mass (kg)
RCS (m²)

Purposes: earth_obs, nav

External: N2YO · Heavens-Above · Gunter

§ Orbital elements

Epoch: 2026-09-18T23:06:38.835072Z

Period
844.70 min
Inclination
55.1803°
Eccentricity
0.0001421
Mean motion
1.70474402 rev/d
Perigee alt
23,217.9 km
Apogee alt
23,226.3 km
Semi-major
29,600.3 km
B*
0.0000e+0
RAAN
98.4580°
Arg perigee
127.6880°
Mean anomaly
50.3345°
Rev number
1,491

§ Raw data

GSAT0225 (GALILEO 29)1 59598U 24079A   26261.96294948  .00000019  00000+0  00000+0 0  99942 59598  55.1803  98.4580 0001421 127.6880  50.3345  1.70474402 14918

JSON: /api/v1/satellites/59598 · /tle

For live sub-satellite position, see the globe view (requires WebGL).

§ Visibility from observer

Set your observer location to see the next 7 days of passes ≥ 10°. The values pass through the URL so the page stays shareable.

No JS? Fill the form by hand. The geolocation button needs JavaScript.